[[{"header":{"parameterUnit":"m.s-1","parameterCategory":2,"la1":30.2991,"la2":30.254,"lo1":-89.0895,"lo2":-89.0444,"dy":0.0017,"dx":0.0017,"nx":28,"ny":28,"refTime":"2023-11-06T09:00:00:Z","depth":"0","parameterNumber":2,"parameterNumberName":"U-component_of_CURRENTS"},"data":[0,0,0,0,0,0,0,0,0,0,0,0,0,0,0,0,0,0,0,0,0,0,0,0,0,0,0,0,0,0,0,0,0,0,0,0,0,0,0,0,0,0,0,0,0,0,0,0,0,0,0,0,0,0,0,0,0,0,-0.0607,-0.0608,0,-0.0695,-0.0696,-0.0697,-0.0661,-0.0659,-0.0657,-0.0655,-0.0549,-0.0549,-0.0548,0,0,0,0,0,0,0,0,0,0,0,0,0,-0.0507,-0.0508,-0.0607,-0.0608,-0.0609,-0.0695,-0.0696,-0.0697,-0.0661,-0.0659,-0.0656,-0.0654,-0.055,-0.0549,-0.0548,0,0,0,0,0,0,0,0,0,0,0,0,0,-0.0567,-0.0508,-0.0607,-0.0602,-0.0602,-0.0695,-0.0696,-0.0698,-0.0662,-0.0659,-0.0656,-0.0653,-0.055,-0.0549,-0.0547,-0.0602,0,0,-0.0543,-0.0543,0,0,0,0,0,0,0,0,-0.0564,-0.0571,-0.0602,-0.0602,-0.0603,-0.0664,-0.0622,-0.0656,-0.0663,-0.0639,-0.0655,-0.0651,-0.0572,-0.0569,-0.0595,-0.0597,-0.0592,-0.0543,-0.0543,-0.0542,-0.0542,0,0,0,0,0,0,0,-0.056,-0.0568,-0.0642,-0.0603,-0.0604,-0.0629,-0.0633,-0.063,-0.0618,-0.0641,-0.0638,-0.065,-0.0571,-0.0597,-0.0591,-0.0591,-0.0543,-0.0542,-0.0541,-0.0541,-0.0668,-0.0672,0,0,0,0,0,0,-0.0548,-0.0564,-0.0639,-0.0644,-0.0576,-0.0633,-0.0638,-0.0647,-0.0622,-0.0617,-0.0652,-0.0648,-0.06,-0.0593,-0.0587,-0.0666,-0.0542,-0.0541,-0.054,-0.0664,-0.0669,-0.0673,0,0,0,0,0,0,-0.0546,-0.0554,-0.0635,-0.0606,-0.0618,-0.0637,-0.0649,-0.0651,-0.0651,-0.0633,-0.0623,-0.0647,-0.0598,-0.0589,-0.0604,-0.066,-0.054,-0.0539,-0.0659,-0.0665,-0.0671,-0.0812,0,0,0,0,0,0,-0.0542,-0.0553,-0.0545,-0.0605,-0.0619,-0.0706,-0.0652,-0.0655,-0.0665,-0.0659,-0.0627,-0.0616,-0.0594,-0.0606,-0.0602,-0.0656,-0.0538,-0.0654,-0.0662,-0.0669,-0.0802,-0.0822,-0.084,0,0,0,0,0,-0.0539,-0.0546,-0.0545,-0.0553,-0.0612,-0.0708,-0.072,-0.0722,-0.0667,-0.0702,-0.0678,-0.0615,-0.0653,-0.0609,-0.0603,-0.0658,-0.065,-0.0659,-0.0668,-0.0794,-0.0818,-0.0839,0,0,0,0,0,0,-0.0497,-0.0545,-0.0544,-0.0563,-0.0637,-0.0702,-0.0714,-0.0718,-0.0731,-0.0694,-0.0659,-0.0651,-0.0697,-0.0663,-0.0614,-0.0724,-0.0645,-0.0654,-0.0742,-0.0765,-0.0783,-0.0773,-0.0537,0,0,0,0,0,-0.0488,-0.0493,-0.0575,-0.0586,-0.062,-0.0663,-0.0689,-0.0704,-0.0729,-0.0728,-0.0725,-0.0716,-0.0742,-0.0734,-0.0757,-0.0797,-0.0673,-0.0835,-0.0854,-0.087,-0.0864,-0.0776,-0.0784,-0.0704,-0.0704,-0.0704,0,0,-0.0474,-0.0495,-0.05,-0.0576,-0.0614,-0.0699,-0.067,-0.0719,-0.0784,-0.0713,-0.0777,-0.078,-0.0773,-0.0844,-0.0858,-0.0808,-0.0814,-0.0882,-0.0895,-0.0879,-0.0786,-0.0793,-0.0799,-0.071,-0.0709,-0.0708,0,0,-0.0461,-0.0474,-0.0486,-0.0562,-0.0631,-0.0693,-0.0707,-0.0792,-0.0819,-0.0897,-0.0873,-0.0912,-0.0941,-0.0973,-0.098,-0.1111,-0.0927,-0.1114,-0.1182,-0.1099,-0.1102,-0.1104,-0.0877,-0.0858,-0.111,-0.111,-0.1111,0,-0.0435,-0.0468,-0.0513,-0.057,-0.0631,-0.0693,-0.0766,-0.0837,-0.092,-0.0947,-0.0927,-0.0999,-0.1013,-0.1076,-0.1154,-0.1151,-0.1007,-0.1091,-0.1116,-0.1116,-0.1115,-0.0883,-0.086,-0.1118,-0.1117,-0.1117,-0.1116,0,-0.0463,-0.0496,-0.0518,-0.0613,-0.0703,-0.0771,-0.0898,-0.0978,-0.1012,-0.1066,-0.1137,-0.1168,-0.1197,-0.1238,-0.1242,-0.1277,-0.1137,-0.1152,-0.1042,-0.1131,-0.088,-0.0853,-0.113,-0.1127,-0.1124,-0.1123,0,0,-0.0382,-0.0506,-0.0514,-0.0552,-0.0726,-0.0792,-0.0945,-0.1083,-0.1111,-0.1218,-0.1219,-0.1376,-0.1356,-0.1367,-0.137,-0.1331,-0.1225,-0.1249,-0.1241,-0.099,-0.0898,-0.0717,-0.0667,-0.1223,-0.1221,-0.122,-0.0692,0,-0.0383,-0.0457,-0.0558,-0.0667,-0.0722,-0.0874,-0.1002,-0.1132,-0.1209,-0.1235,-0.1286,-0.1297,-0.1412,-0.138,-0.1393,-0.1235,-0.1173,-0.1358,-0.0879,-0.0862,-0.0666,-0.0642,-0.0566,-0.0086,-0.0665,-0.066,-0.0657,0,-0.0384,-0.0424,-0.051,-0.0651,-0.0694,-0.0787,-0.0952,-0.107,-0.1177,-0.1222,-0.1278,-0.1268,-0.126,-0.1316,-0.1132,-0.1221,-0.1105,-0.099,-0.0966,-0.0733,-0.0636,-0.0111,-0.0013,-0.0051,-0.0613,-0.0617,-0.062,0,-0.0269,-0.0399,-0.0445,-0.0504,-0.0688,-0.0753,-0.0863,-0.1031,-0.1081,-0.1152,-0.1109,-0.115,-0.1028,-0.0977,-0.0827,-0.0945,-0.05,-0.0618,-0.0339,-0.0315,-0.0127,-0.0093,0.0011,-0.0507,-0.0508,-0.0509,-0.0511,0,-0.0233,-0.0263,-0.0368,-0.0394,-0.0433,-0.0621,-0.0669,-0.0816,-0.0899,-0.0873,-0.104,-0.0943,-0.094,-0.0722,-0.0679,-0.0343,-0.0379,-0.0299,-0.0186,-0.0167,-0.0145,-0.0071,-0.0209,-0.0489,-0.0494,-0.0498,-0.0501,0,-0.0097,-0.0185,-0.0211,-0.0341,-0.0369,-0.0386,-0.0513,-0.0531,-0.0672,-0.0605,-0.0598,-0.0641,-0.0387,-0.0298,-0.0051,-0.0041,0.0185,0.0291,0.0391,0.0499,0.0629,0.0479,0.0593,0.0563,0.069,0.0698,0.0704,0,-0.0043,-0.0029,-0.0092,-0.0077,-0.0119,-0.0159,-0.0182,-0.0377,-0.0383,-0.0402,-0.0306,-0.0103,0.003,0.0486,0.0595,0.0844,0.0574,0.1023,0.0703,0.0699,0.0615,0.0345,0.0285,0.0962,0.097,0.0976,0.0981,0,0.0104,0.0103,0.0099,0.0133,0.014,0.0137,0.0101,0.0131,-0.0034,0.0018,0.0149,0.0261,0.0619,0.088,0.1165,0.1256,0.0911,0.1162,0.1096,0.0791,0.0566,0.0576,0.0642,0.1038,0.1032,0.1028,0.1025,0.1023,0.0246,0.03,0.0304,0.0332,0.0358,0.0401,0.0423,0.0435,0.0475,0.0529,0.0586,0.0756,0.1,0.1373,0.1476,0.1659,0.1363,0.1571,0.1407,0.1151,0.101,0.1268,0.1783,0.1781,0.178,0.1779,0.1778,0,0.0362,0.0407,0.0484,0.05,0.0559,0.0524,0.0574,0.0606,0.0725,0.0852,0.0968,0.1223,0.1514,0.1649,0.1926,0.1896,0.1633,0.1811,0.1393,0.133,0.1594,0.149,0.2035,0.2035,0.2035,0.2035,0.2035,0.2035,0.042,0.0497,0.0524,0.064,0.0681,0.0745,0.0785,0.0881,0.0957,0.117,0.1293,0.137,0.1524,0.1829,0.1977,0.1935,0.1577,0.1529,0.1373,0.1504,0.1464,0.1425,0.1298,0.1794,0.1794,0.1096,0.109,0.1086]},{"header":{"parameterUnit":"m.s-1","parameterCategory":2,"la1":30.2991,"la2":30.254,"lo1":-89.0895,"lo2":-89.0444,"dy":0.0017,"dx":0.0017,"nx":28,"ny":28,"refTime":"2023-11-06T09:00:00:Z","depth":"0","parameterNumber":3,"parameterNumberName":"V-component_of_CURRENTS"},"data":[0,0,0,0,0,0,0,0,0,0,0,0,0,0,0,0,0,0,0,0,0,0,0,0,0,0,0,0,0,0,0,0,0,0,0,0,0,0,0,0,0,0,0,0,0,0,0,0,0,0,0,0,0,0,0,0,0,0,-0.0206,-0.0204,0,-0.003,-0.0028,-0.0026,0.0098,0.0099,0.01,0.0101,0.0258,0.0262,0.0265,0,0,0,0,0,0,0,0,0,0,0,0,0,-0.0292,-0.0292,-0.0206,-0.0204,-0.0202,-0.0031,-0.0028,-0.0025,0.0098,0.0099,0.01,0.0101,0.0257,0.0261,0.0265,0,0,0,0,0,0,0,0,0,0,0,0,0,-0.0198,-0.0292,-0.0206,-0.0121,-0.0112,-0.0031,-0.0028,-0.0025,0.0098,0.0099,0.01,0.0101,0.0256,0.0261,0.0266,0.0276,0,0,0.0282,0.0284,0,0,0,0,0,0,0,0,-0.0203,-0.0194,-0.0136,-0.0127,-0.0117,0.0011,-0.0,0.0074,0.0098,0.0021,0.0101,0.0102,0.0171,0.0184,0.0218,0.0283,0.029,0.0283,0.0286,0.0288,0.0289,0,0,0,0,0,0,0,-0.021,-0.02,-0.0134,-0.0134,-0.0122,-0.0044,-0.003,0.0015,0.0089,0.0028,0.0036,0.0052,0.0177,0.0213,0.0223,0.0292,0.0282,0.0287,0.029,0.0292,0.033,0.0328,0,0,0,0,0,0,-0.0246,-0.0208,-0.0139,-0.0129,-0.0161,-0.0044,-0.0029,-0.0029,0.009,0.0108,0.005,0.0057,0.0203,0.0216,0.0229,0.0198,0.0288,0.0293,0.0296,0.0333,0.033,0.0328,0,0,0,0,0,0,-0.0249,-0.0242,-0.0146,-0.0165,-0.0147,-0.0045,-0.0046,-0.0026,0.0009,0.0107,0.0126,0.0064,0.0205,0.0221,0.0251,0.0207,0.0295,0.03,0.0335,0.0332,0.0329,0.0168,0,0,0,0,0,0,-0.0252,-0.0245,-0.0248,-0.0168,-0.0148,-0.0131,-0.0046,-0.0024,0.0015,0.0025,0.0124,0.0141,0.0207,0.0242,0.0256,0.0216,0.0304,0.0338,0.0334,0.033,0.0176,0.016,0.0146,0,0,0,0,0,-0.0256,-0.0292,-0.025,-0.0241,-0.016,-0.0134,-0.0117,-0.0036,0.0014,0.0005,0.0079,0.0138,0.0227,0.0245,0.0262,0.0222,0.034,0.0335,0.033,0.0183,0.0163,0.0146,0,0,0,0,0,0,-0.0327,-0.028,-0.0233,-0.0248,-0.0203,-0.0114,-0.011,-0.005,0.0006,0.0019,0.012,0.0139,0.0146,0.0203,0.0222,0.0219,0.0289,0.0287,0.0171,0.0153,0.0138,0.0129,0.0308,0,0,0,0,0,-0.0346,-0.0359,-0.0294,-0.0302,-0.029,-0.0197,-0.0169,-0.012,-0.0061,-0.0033,0.004,0.0104,0.0139,0.0162,0.0206,0.0209,0.0329,0.019,0.0175,0.0162,0.0164,0.0315,0.0316,0.0312,0.0312,0.0312,0,0,-0.0366,-0.0347,-0.0346,-0.0317,-0.027,-0.0278,-0.0179,-0.0162,-0.0166,-0.0028,-0.0015,0.0055,0.0128,0.0129,0.0137,0.0172,0.0223,0.0156,0.0144,0.0154,0.0311,0.0312,0.0313,0.0309,0.0309,0.031,0,0,-0.0434,-0.0409,-0.0441,-0.0423,-0.038,-0.0341,-0.0347,-0.0271,-0.024,-0.0218,-0.0127,-0.008,-0.0021,0.0029,0.0058,-0.0014,0.0138,-0.0012,-0.0093,0.0053,0.0056,0.0059,0.0209,0.0227,-0.0019,-0.002,-0.002,0,-0.0449,-0.0482,-0.0444,-0.0474,-0.0465,-0.0385,-0.0412,-0.0388,-0.0309,-0.0283,-0.0245,-0.0108,-0.007,-0.003,-0.008,-0.0048,0.0072,-0.0031,0.0037,0.0043,0.005,0.0203,0.0225,-0.0028,-0.0027,-0.0026,-0.0026,0,-0.054,-0.0556,-0.0583,-0.0595,-0.0595,-0.0608,-0.0576,-0.0566,-0.0514,-0.0457,-0.0392,-0.0293,-0.0196,-0.0204,-0.0178,-0.0126,-0.0044,0.0003,0.0088,0.0041,0.0204,0.0231,-0.004,-0.0037,-0.0035,-0.0033,0,0,-0.0567,-0.063,-0.0634,-0.0637,-0.0653,-0.0648,-0.0701,-0.0685,-0.066,-0.0593,-0.0504,-0.0494,-0.0381,-0.0341,-0.026,-0.0172,-0.006,-0.0091,-0.0079,0.0066,0.0287,0.0218,0.0243,0.0016,0.0019,0.0022,0.0382,0,-0.0622,-0.0708,-0.0735,-0.0785,-0.0801,-0.0783,-0.0822,-0.0804,-0.075,-0.0652,-0.0541,-0.0437,-0.045,-0.0359,-0.0288,-0.0073,0.0004,-0.016,0.0304,0.0318,0.0269,0.0267,0.0264,0.0572,0.0409,0.0413,0.0417,0,-0.067,-0.0718,-0.0796,-0.083,-0.0838,-0.0873,-0.0863,-0.0883,-0.0792,-0.0736,-0.0618,-0.0471,-0.0325,-0.0307,-0.0001,-0.009,0.0049,0.0193,0.0212,0.0224,0.0297,0.0593,0.0629,0.0581,0.046,0.0456,0.0453,0,-0.0641,-0.0737,-0.0797,-0.0813,-0.0865,-0.0891,-0.0918,-0.0893,-0.0864,-0.0735,-0.062,-0.0442,-0.0232,-0.0062,0.0167,0.0124,0.0543,0.0548,0.0613,0.0614,0.0737,0.0739,0.0789,0.0729,0.0728,0.0727,0.0726,0,-0.0643,-0.0672,-0.0787,-0.0795,-0.0838,-0.0886,-0.0887,-0.0894,-0.0821,-0.0719,-0.0624,-0.0414,-0.0156,0.0113,0.0242,0.052,0.0613,0.0609,0.0697,0.0674,0.0666,0.0731,0.0701,0.0741,0.0738,0.0735,0.0733,0,-0.0545,-0.0642,-0.0676,-0.0772,-0.0807,-0.0817,-0.0863,-0.0836,-0.081,-0.0636,-0.0567,-0.0294,0.004,0.0255,0.063,0.0669,0.0915,0.0949,0.0887,0.0953,0.0894,0.0855,0.1073,0.1146,0.111,0.1111,0.1111,0,-0.0496,-0.0518,-0.0623,-0.0646,-0.0682,-0.0733,-0.0752,-0.0805,-0.0761,-0.0534,-0.04,-0.0051,0.0236,0.07,0.083,0.1056,0.1029,0.1134,0.0985,0.088,0.0909,0.0883,0.0929,0.1129,0.1129,0.113,0.113,0,-0.037,-0.0416,-0.0446,-0.051,-0.0548,-0.0581,-0.0614,-0.0588,-0.0574,-0.0428,-0.0121,0.0135,0.0539,0.0826,0.1015,0.1119,0.1092,0.114,0.1101,0.0952,0.0877,0.0994,0.0898,0.1133,0.1133,0.1132,0.1132,0.1132,-0.0255,-0.0247,-0.0313,-0.0363,-0.0398,-0.0407,-0.0395,-0.0389,-0.0293,-0.0073,0.0108,0.0457,0.0763,0.1054,0.1096,0.1111,0.1149,0.1115,0.1102,0.1105,0.106,0.0913,0.1165,0.1165,0.1165,0.1165,0.1165,0,-0.014,-0.0162,-0.0177,-0.0227,-0.0214,-0.0285,-0.0279,-0.0237,-0.0091,0.01,0.0346,0.0741,0.0943,0.1077,0.1129,0.1086,0.1109,0.1075,0.1062,0.1136,0.1097,0.0967,0.1101,0.1101,0.1102,0.1102,0.1102,0.1102,-0.0078,-0.0072,-0.0103,-0.0068,-0.0082,-0.0049,-0.003,0.0046,0.0147,0.045,0.0679,0.0892,0.117,0.1029,0.0988,0.0994,0.1059,0.1016,0.1079,0.0997,0.0999,0.1001,0.0869,0.098,0.098,0.1153,0.1154,0.1154]}],[{"header":{"parameterUnit":"m.s-1","parameterCategory":2,"la1":30.2991,"la2":30.254,"lo1":-89.0895,"lo2":-89.0444,"dy":0.0017,"dx":0.0017,"nx":28,"ny":28,"refTime":"2023-11-06T09:00:00:Z","depth":"2","parameterNumber":2,"parameterNumberName":"U-component_of_CURRENTS"},"data":[0,0,0,0,0,0,0,0,0,0,0,0,0,0,0,0,0,0,0,0,0,0,0,0,0,0,0,0,0,0,0,0,0,0,0,0,0,0,0,0,0,0,0,0,0,0,0,0,0,0,0,0,0,0,0,0,0,0,-0.2593,-0.2593,0,-0.2517,-0.2516,-0.2515,-0.2508,-0.2509,-0.251,-0.2511,-0.2386,-0.2382,-0.2377,0,0,0,0,0,0,0,0,0,0,0,0,0,-0.2552,-0.2554,-0.2593,-0.2593,-0.2592,-0.2517,-0.2516,-0.2515,-0.2508,-0.2509,-0.251,-0.2511,-0.2387,-0.2382,-0.2377,0,0,0,0,0,0,0,0,0,0,0,0,0,-0.253,-0.2555,-0.2593,-0.2581,-0.258,-0.2518,-0.2516,-0.2514,-0.2507,-0.2509,-0.2511,-0.2512,-0.2389,-0.2383,-0.2376,-0.2305,0,0,-0.2357,-0.2354,0,0,0,0,0,0,0,0,-0.2532,-0.2532,-0.2584,-0.2582,-0.258,-0.2526,-0.2456,-0.2443,-0.2507,-0.2532,-0.2511,-0.2513,-0.2429,-0.2419,-0.2398,-0.2299,-0.2294,-0.2356,-0.2352,-0.2349,-0.2347,0,0,0,0,0,0,0,-0.2534,-0.2534,-0.256,-0.2583,-0.2581,-0.2518,-0.2518,-0.2452,-0.2469,-0.253,-0.253,-0.2525,-0.2427,-0.2404,-0.2395,-0.2292,-0.2356,-0.235,-0.2346,-0.2344,-0.2159,-0.2158,0,0,0,0,0,0,-0.2557,-0.2537,-0.2563,-0.2558,-0.2562,-0.2519,-0.2518,-0.254,-0.2471,-0.2464,-0.2524,-0.2525,-0.2415,-0.2403,-0.2391,-0.233,-0.2349,-0.2343,-0.234,-0.216,-0.2158,-0.2157,0,0,0,0,0,0,-0.2556,-0.2561,-0.2566,-0.2546,-0.2543,-0.2519,-0.2542,-0.2537,-0.2525,-0.2468,-0.2459,-0.2518,-0.2415,-0.24,-0.2338,-0.2324,-0.234,-0.2334,-0.2161,-0.2159,-0.2158,-0.219,0,0,0,0,0,0,-0.2556,-0.2562,-0.2587,-0.2549,-0.2545,-0.254,-0.2541,-0.2535,-0.252,-0.2521,-0.2459,-0.2449,-0.2415,-0.2347,-0.2331,-0.2315,-0.2329,-0.2162,-0.216,-0.2158,-0.219,-0.2189,-0.2189,0,0,0,0,0,-0.2555,-0.2571,-0.2589,-0.2592,-0.2581,-0.254,-0.2532,-0.2516,-0.2519,-0.2511,-0.2467,-0.2451,-0.2324,-0.2341,-0.2322,-0.2304,-0.2163,-0.2161,-0.2159,-0.219,-0.2189,-0.2189,0,0,0,0,0,0,-0.2568,-0.2572,-0.259,-0.2611,-0.2588,-0.254,-0.2525,-0.2517,-0.2475,-0.2472,-0.2427,-0.2413,-0.2354,-0.2319,-0.234,-0.2245,-0.2244,-0.2238,-0.2274,-0.2273,-0.2272,-0.223,-0.2324,0,0,0,0,0,-0.2585,-0.2594,-0.2589,-0.2599,-0.2593,-0.2561,-0.2544,-0.2532,-0.249,-0.2475,-0.243,-0.2378,-0.2325,-0.2295,-0.224,-0.2179,-0.213,-0.2157,-0.2157,-0.2157,-0.2109,-0.2053,-0.2043,-0.215,-0.215,-0.215,0,0,-0.2585,-0.2591,-0.2594,-0.26,-0.2577,-0.2543,-0.2554,-0.2523,-0.2485,-0.2462,-0.2394,-0.2368,-0.2307,-0.2248,-0.2219,-0.222,-0.2103,-0.2154,-0.2155,-0.2105,-0.2049,-0.2039,-0.203,-0.2148,-0.2148,-0.2149,0,0,-0.2555,-0.2601,-0.2587,-0.257,-0.2549,-0.253,-0.2526,-0.2486,-0.2468,-0.2405,-0.2384,-0.2343,-0.2259,-0.2216,-0.2182,-0.2136,-0.2102,-0.2139,-0.2098,-0.2047,-0.2037,-0.2028,-0.1967,-0.1952,-0.2141,-0.2141,-0.2141,0,-0.2543,-0.2549,-0.257,-0.2542,-0.2515,-0.2524,-0.2479,-0.2456,-0.2398,-0.2372,-0.2386,-0.2264,-0.2231,-0.2146,-0.2139,-0.2132,-0.2098,-0.2115,-0.2046,-0.2036,-0.2026,-0.1966,-0.1949,-0.2142,-0.2142,-0.2142,-0.2141,0,-0.2499,-0.2498,-0.2479,-0.2455,-0.2434,-0.2396,-0.2376,-0.2354,-0.2341,-0.2314,-0.2244,-0.2201,-0.2128,-0.2131,-0.2114,-0.2035,-0.2032,-0.2057,-0.2053,-0.2018,-0.1956,-0.1938,-0.2144,-0.2143,-0.2143,-0.2142,0,0,-0.2453,-0.2447,-0.2438,-0.241,-0.2385,-0.2349,-0.2307,-0.2261,-0.2226,-0.2192,-0.2126,-0.206,-0.2059,-0.2017,-0.2012,-0.197,-0.1893,-0.1984,-0.1981,-0.1928,-0.1769,-0.1752,-0.173,-0.1923,-0.192,-0.1917,-0.176,0,-0.2395,-0.2334,-0.2351,-0.2271,-0.2227,-0.2233,-0.2191,-0.2157,-0.2139,-0.2087,-0.2056,-0.1994,-0.2012,-0.1989,-0.1946,-0.1903,-0.1844,-0.1931,-0.1801,-0.1796,-0.179,-0.1708,-0.1616,-0.1466,-0.1742,-0.1739,-0.1736,0,-0.2333,-0.2299,-0.2226,-0.2174,-0.2159,-0.2119,-0.2063,-0.2026,-0.1986,-0.1979,-0.1932,-0.1916,-0.1832,-0.187,-0.1743,-0.1805,-0.1763,-0.1738,-0.1733,-0.1678,-0.1743,-0.154,-0.1423,-0.1706,-0.1708,-0.1711,-0.1713,0,-0.2263,-0.2203,-0.2145,-0.2123,-0.2076,-0.2043,-0.2015,-0.1982,-0.1936,-0.1903,-0.1871,-0.1805,-0.1753,-0.1691,-0.1647,-0.1686,-0.152,-0.1573,-0.1505,-0.1504,-0.1371,-0.1364,-0.1452,-0.1452,-0.1453,-0.1453,-0.1454,0,-0.2185,-0.2135,-0.2107,-0.2066,-0.1983,-0.1977,-0.1892,-0.1888,-0.1841,-0.1786,-0.1799,-0.1746,-0.1707,-0.1629,-0.1596,-0.1481,-0.1472,-0.1442,-0.1443,-0.1383,-0.1379,-0.1547,-0.156,-0.1447,-0.1449,-0.145,-0.1451,0,-0.2117,-0.211,-0.2025,-0.1968,-0.1946,-0.188,-0.1803,-0.175,-0.1744,-0.167,-0.1653,-0.1648,-0.1581,-0.1532,-0.1436,-0.14,-0.1314,-0.1282,-0.1212,-0.1207,-0.1341,-0.1357,-0.1151,-0.1149,-0.1147,-0.1145,-0.1144,0,-0.2084,-0.2028,-0.1945,-0.1891,-0.1863,-0.1773,-0.1719,-0.1694,-0.1651,-0.1617,-0.1581,-0.1519,-0.147,-0.1325,-0.1263,-0.1153,-0.124,-0.1021,-0.1067,-0.1277,-0.13,-0.132,-0.1339,-0.0903,-0.09,-0.0897,-0.0895,0,-0.1986,-0.196,-0.1898,-0.1784,-0.1711,-0.1634,-0.1567,-0.1527,-0.1518,-0.1468,-0.1443,-0.1397,-0.1292,-0.1137,-0.1021,-0.0989,-0.1035,-0.0964,-0.1152,-0.1022,-0.1038,-0.1064,-0.109,-0.0871,-0.0874,-0.0876,-0.0877,-0.0878,-0.1915,-0.1839,-0.1751,-0.1648,-0.1567,-0.1508,-0.1441,-0.1399,-0.1328,-0.1223,-0.127,-0.1116,-0.1068,-0.0815,-0.0772,-0.0769,-0.0863,-0.0824,-0.0833,-0.0845,-0.0872,-0.0887,-0.0695,-0.0697,-0.0698,-0.0699,-0.07,0,-0.1783,-0.1714,-0.1614,-0.1492,-0.1399,-0.1392,-0.1337,-0.1255,-0.1168,-0.1031,-0.0935,-0.074,-0.0599,-0.058,-0.05,-0.0504,-0.054,-0.0523,-0.0534,-0.0559,-0.058,-0.0596,-0.0344,-0.0343,-0.0341,-0.034,0,0,-0.1705,-0.1577,-0.1525,-0.1352,-0.128,-0.1162,-0.1133,-0.1014,-0.0891,-0.068,-0.0517,-0.0415,-0.0455,-0.0294,-0.0334,-0.0298,-0.0427,-0.0314,-0.0601,-0.0632,-0.0651,-0.076,-0.0813,0,0,0,0,0]},{"header":{"parameterUnit":"m.s-1","parameterCategory":2,"la1":30.2991,"la2":30.254,"lo1":-89.0895,"lo2":-89.0444,"dy":0.0017,"dx":0.0017,"nx":28,"ny":28,"refTime":"2023-11-06T09:00:00:Z","depth":"2","parameterNumber":3,"parameterNumberName":"V-component_of_CURRENTS"},"data":[0,0,0,0,0,0,0,0,0,0,0,0,0,0,0,0,0,0,0,0,0,0,0,0,0,0,0,0,0,0,0,0,0,0,0,0,0,0,0,0,0,0,0,0,0,0,0,0,0,0,0,0,0,0,0,0,0,0,0.0528,0.0529,0,0.0656,0.0657,0.0659,0.0698,0.0697,0.0697,0.0696,0.0782,0.0785,0.0788,0,0,0,0,0,0,0,0,0,0,0,0,0,0.0305,0.0309,0.0528,0.0529,0.0531,0.0656,0.0657,0.0659,0.0698,0.0697,0.0697,0.0696,0.0781,0.0785,0.0788,0,0,0,0,0,0,0,0,0,0,0,0,0,0.0413,0.031,0.0527,0.0567,0.0571,0.0655,0.0658,0.066,0.0698,0.0697,0.0697,0.0696,0.078,0.0784,0.0788,0.083,0,0,0.0801,0.0803,0,0,0,0,0,0,0,0,0.0407,0.0421,0.0559,0.0564,0.057,0.0661,0.061,0.0715,0.0698,0.0649,0.0696,0.0696,0.0739,0.0747,0.0771,0.0834,0.0837,0.0801,0.0804,0.0806,0.0807,0,0,0,0,0,0,0,0.0399,0.0416,0.0577,0.0561,0.0568,0.0574,0.0588,0.063,0.0695,0.0653,0.0657,0.0673,0.0742,0.0767,0.0774,0.0838,0.0801,0.0805,0.0808,0.0809,0.0911,0.0911,0,0,0,0,0,0,0.0388,0.0409,0.0573,0.0581,0.0486,0.0579,0.0595,0.0632,0.0696,0.0705,0.0674,0.0674,0.0761,0.0769,0.0777,0.0815,0.0806,0.081,0.0812,0.0911,0.0911,0.0911,0,0,0,0,0,0,0.0383,0.0403,0.0568,0.0497,0.0519,0.0583,0.0625,0.0635,0.0654,0.0712,0.072,0.0682,0.076,0.0771,0.0803,0.0819,0.0811,0.0815,0.091,0.0911,0.0911,0.0901,0,0,0,0,0,0,0.0377,0.0401,0.0428,0.0498,0.0523,0.0604,0.0626,0.0638,0.0667,0.0669,0.0722,0.073,0.0761,0.0797,0.0807,0.0825,0.0818,0.091,0.0911,0.0911,0.0901,0.0901,0.0901,0,0,0,0,0,0.0369,0.0404,0.0429,0.0449,0.0558,0.0604,0.0617,0.0658,0.0668,0.0673,0.0708,0.0728,0.0807,0.0801,0.0813,0.0832,0.091,0.091,0.0911,0.0901,0.0901,0.0901,0,0,0,0,0,0,0.0328,0.0414,0.0442,0.0506,0.0545,0.061,0.0629,0.0654,0.069,0.0691,0.0735,0.0746,0.0779,0.0804,0.0795,0.086,0.086,0.0863,0.0849,0.0849,0.0849,0.0815,0.0822,0,0,0,0,0,0.0333,0.0378,0.0448,0.0496,0.0514,0.0569,0.0596,0.0622,0.0663,0.0678,0.0716,0.0755,0.0795,0.0817,0.0852,0.0892,0.0896,0.0909,0.0909,0.0909,0.0888,0.0906,0.0905,0.0913,0.0913,0.0913,0,0,0.0327,0.0384,0.0408,0.0489,0.0524,0.0555,0.0582,0.0616,0.0645,0.0682,0.0724,0.0755,0.0803,0.0845,0.0862,0.0866,0.0912,0.0909,0.0909,0.0888,0.0906,0.0906,0.0905,0.0913,0.0913,0.0913,0,0,0.0318,0.0387,0.0407,0.0445,0.05,0.0542,0.0546,0.0605,0.0631,0.0675,0.0709,0.0744,0.0806,0.0846,0.0875,0.0894,0.0907,0.0904,0.0886,0.0904,0.0903,0.0902,0.0918,0.0919,0.0909,0.0909,0.0909,0,0.0294,0.0355,0.0415,0.0441,0.0473,0.053,0.0546,0.0591,0.0653,0.0669,0.0679,0.076,0.0809,0.0858,0.0868,0.0896,0.0895,0.0886,0.0903,0.0902,0.0902,0.0918,0.0919,0.0909,0.0909,0.0909,0.0909,0,0.0297,0.0346,0.0357,0.0419,0.0458,0.0482,0.0549,0.058,0.0618,0.0656,0.0697,0.0757,0.0791,0.083,0.086,0.0885,0.0883,0.0897,0.0901,0.09,0.0918,0.0919,0.0908,0.0909,0.0909,0.0909,0,0,0.0216,0.0333,0.0335,0.0359,0.0448,0.0471,0.0526,0.0579,0.0596,0.0653,0.0669,0.0752,0.0756,0.0786,0.0829,0.086,0.088,0.0869,0.0871,0.0879,0.0905,0.0825,0.0818,0.0888,0.0888,0.0888,0.0923,0,0.0184,0.0233,0.0308,0.0342,0.0364,0.0445,0.0488,0.0545,0.0594,0.0625,0.0685,0.0718,0.075,0.0763,0.0792,0.0861,0.0879,0.0868,0.0908,0.0909,0.0833,0.0815,0.074,0.0756,0.0924,0.0924,0.0924,0,0.0144,0.0188,0.0221,0.0305,0.0318,0.0347,0.0411,0.0459,0.053,0.0562,0.0593,0.0636,0.0693,0.0716,0.0796,0.078,0.0823,0.0876,0.0879,0.08,0.0828,0.0782,0.0752,0.0926,0.0926,0.0926,0.0926,0,0.004,0.0121,0.0148,0.0176,0.0277,0.0293,0.0342,0.0419,0.0456,0.051,0.0533,0.0585,0.0627,0.0675,0.0766,0.0779,0.0844,0.0886,0.0851,0.0848,0.0786,0.0776,0.0916,0.0916,0.0916,0.0916,0.0916,0,-0.0024,-0.0011,0.0095,0.0101,0.0115,0.0209,0.0226,0.0283,0.0356,0.0389,0.0473,0.0492,0.0616,0.0672,0.0737,0.0776,0.0814,0.0826,0.084,0.0781,0.077,0.0918,0.0918,0.0917,0.0917,0.0916,0.0916,0,-0.0142,-0.0064,-0.0044,0.0044,0.0066,0.0067,0.0161,0.0183,0.0261,0.0306,0.0324,0.0434,0.05,0.0607,0.0712,0.0743,0.0796,0.0798,0.0713,0.0714,0.0801,0.08,0.0773,0.077,0.0768,0.0766,0.0764,0,-0.019,-0.0188,-0.0113,-0.0097,-0.0062,-0.003,0.0004,0.0105,0.0146,0.0256,0.0271,0.0357,0.0355,0.0464,0.0567,0.0641,0.0722,0.0627,0.0636,0.0764,0.0782,0.0785,0.0787,0.0574,0.0571,0.0569,0.0567,0,-0.0295,-0.0267,-0.0244,-0.0204,-0.0175,-0.0129,-0.0071,-0.0057,0.0069,0.0086,0.0112,0.0103,0.0221,0.0264,0.0384,0.0425,0.0606,0.0575,0.0735,0.0602,0.0573,0.0592,0.0602,0.0544,0.0546,0.0548,0.0549,0.055,-0.0378,-0.0383,-0.0333,-0.0301,-0.0259,-0.0213,-0.0199,-0.0147,-0.0132,-0.0087,-0.0072,-0.007,0.004,0.0153,0.0248,0.0402,0.0424,0.0468,0.0478,0.049,0.044,0.0407,0.0338,0.0339,0.034,0.0341,0.0341,0,-0.046,-0.0432,-0.0413,-0.0363,-0.0337,-0.0272,-0.0222,-0.0227,-0.0249,-0.0213,-0.0247,-0.0188,-0.015,0.0038,0.0218,0.0283,0.0319,0.0321,0.0369,0.0386,0.0403,0.0353,0.0226,0.0227,0.0228,0.0228,0,0,-0.0495,-0.0497,-0.0471,-0.0437,-0.0388,-0.0346,-0.0322,-0.0357,-0.0333,-0.036,-0.0319,-0.034,-0.0151,-0.0033,0.0061,0.0174,0.0269,0.0174,0.024,0.0296,0.0313,0.0438,0.0372,0,0,0,0,0]}],[{"header":{"parameterUnit":"m.s-1","parameterCategory":2,"la1":30.2991,"la2":30.254,"lo1":-89.0895,"lo2":-89.0444,"dy":0.0017,"dx":0.0017,"nx":28,"ny":28,"refTime":"2023-11-06T09:00:00:Z","depth":"4","parameterNumber":2,"parameterNumberName":"U-component_of_CURRENTS"},"data":[0,0,0,0,0,0,0,0,0,0,0,0,0,0,0,0,0,0,0,0,0,0,0,0,0,0,0,0,0,0,0,0,0,0,0,0,0,0,0,0,0,0,0,0,0,0,0,0,0,0,0,0,0,0,0,0,0,0,-0.0673,-0.0674,0,-0.0749,-0.075,-0.0751,-0.0767,-0.0767,-0.0767,-0.0766,-0.0859,-0.0861,-0.0864,0,0,0,0,0,0,0,0,0,0,0,0,0,-0.0639,-0.0639,-0.0673,-0.0674,-0.0675,-0.0749,-0.075,-0.0751,-0.0767,-0.0767,-0.0766,-0.0766,-0.0858,-0.0861,-0.0864,0,0,0,0,0,0,0,0,0,0,0,0,0,-0.0676,-0.0639,-0.0673,-0.0694,-0.0696,-0.0749,-0.075,-0.0751,-0.0768,-0.0767,-0.0766,-0.0766,-0.0857,-0.0861,-0.0865,-0.0903,0,0,-0.0878,-0.088,0,0,0,0,0,0,0,0,-0.0674,-0.0677,-0.0689,-0.0692,-0.0696,-0.075,-0.0772,-0.0803,-0.0768,-0.0739,-0.0766,-0.0766,-0.0825,-0.0832,-0.0845,-0.0907,-0.0911,-0.0878,-0.0881,-0.0883,-0.0884,0,0,0,0,0,0,0,-0.0671,-0.0675,-0.0701,-0.0691,-0.0694,-0.0733,-0.0736,-0.0778,-0.0783,-0.0741,-0.0743,-0.0754,-0.0827,-0.0841,-0.0847,-0.0912,-0.0878,-0.0882,-0.0884,-0.0886,-0.0985,-0.0985,0,0,0,0,0,0,-0.0661,-0.0672,-0.0699,-0.0704,-0.0685,-0.0733,-0.0737,-0.0731,-0.0783,-0.079,-0.0755,-0.0755,-0.0834,-0.0842,-0.0851,-0.0921,-0.0883,-0.0887,-0.0889,-0.0985,-0.0985,-0.0985,0,0,0,0,0,0,-0.066,-0.0662,-0.0696,-0.0692,-0.0699,-0.0734,-0.0728,-0.0733,-0.0763,-0.0793,-0.08,-0.0781,-0.0834,-0.0845,-0.0901,-0.0923,-0.0888,-0.0892,-0.0985,-0.0985,-0.0985,-0.1046,0,0,0,0,0,0,-0.0658,-0.066,-0.0654,-0.0691,-0.0699,-0.0711,-0.0729,-0.0735,-0.0771,-0.0772,-0.0818,-0.0825,-0.0834,-0.0894,-0.0905,-0.0928,-0.0896,-0.0985,-0.0985,-0.0985,-0.1044,-0.1049,-0.1052,0,0,0,0,0,-0.0656,-0.0646,-0.0653,-0.0657,-0.0688,-0.0711,-0.0718,-0.0742,-0.0773,-0.0771,-0.0821,-0.0824,-0.0901,-0.0899,-0.0911,-0.0936,-0.0985,-0.0985,-0.0985,-0.1042,-0.1048,-0.1052,0,0,0,0,0,0,-0.0636,-0.0649,-0.0656,-0.0653,-0.0674,-0.0714,-0.0727,-0.0757,-0.0798,-0.0808,-0.0848,-0.0858,-0.0904,-0.0912,-0.0908,-0.0958,-0.0935,-0.0938,-0.0974,-0.0979,-0.0983,-0.096,-0.0899,0,0,0,0,0,-0.0627,-0.0623,-0.0644,-0.0647,-0.0656,-0.0701,-0.072,-0.0733,-0.0776,-0.0794,-0.0835,-0.0873,-0.0913,-0.0941,-0.0958,-0.1012,-0.0999,-0.1024,-0.1028,-0.1032,-0.1017,-0.1034,-0.1039,-0.0986,-0.0986,-0.0986,0,0,-0.0625,-0.0634,-0.0632,-0.0643,-0.0669,-0.0677,-0.071,-0.0733,-0.0759,-0.08,-0.0857,-0.0891,-0.0926,-0.097,-0.0991,-0.0986,-0.1039,-0.1032,-0.1036,-0.1018,-0.1035,-0.104,-0.1045,-0.0986,-0.0986,-0.0986,0,0,-0.0623,-0.0623,-0.0619,-0.0629,-0.0656,-0.0672,-0.0683,-0.0726,-0.076,-0.0817,-0.0852,-0.0905,-0.0966,-0.0997,-0.1024,-0.1064,-0.1054,-0.1064,-0.1085,-0.1102,-0.1107,-0.1111,-0.1103,-0.1106,-0.1075,-0.1076,-0.1076,0,-0.0625,-0.0622,-0.0625,-0.0627,-0.0648,-0.0672,-0.0685,-0.0716,-0.0776,-0.0807,-0.0829,-0.0938,-0.0976,-0.1048,-0.106,-0.1076,-0.107,-0.1074,-0.111,-0.1113,-0.1117,-0.1107,-0.1109,-0.1079,-0.1078,-0.1078,-0.1078,0,-0.0612,-0.0621,-0.0627,-0.0631,-0.0641,-0.066,-0.069,-0.0716,-0.077,-0.0799,-0.0881,-0.0954,-0.102,-0.1042,-0.1076,-0.1123,-0.1106,-0.111,-0.1103,-0.1126,-0.1114,-0.1115,-0.1083,-0.1082,-0.1081,-0.108,0,0,-0.0603,-0.0617,-0.0623,-0.0627,-0.0652,-0.0651,-0.0695,-0.073,-0.0761,-0.0826,-0.0892,-0.0984,-0.1027,-0.1059,-0.1119,-0.1143,-0.1179,-0.1142,-0.1142,-0.1142,-0.1199,-0.11,-0.1092,-0.1197,-0.1198,-0.1198,-0.1183,0,-0.061,-0.0613,-0.0626,-0.0636,-0.0639,-0.067,-0.071,-0.0735,-0.0781,-0.0833,-0.0919,-0.0985,-0.1036,-0.1093,-0.1134,-0.116,-0.1184,-0.1181,-0.1168,-0.1166,-0.1084,-0.1091,-0.12,-0.1184,-0.1184,-0.1185,-0.1185,0,-0.0602,-0.0603,-0.0622,-0.0644,-0.0651,-0.0662,-0.0707,-0.0738,-0.0798,-0.0844,-0.0921,-0.0978,-0.1062,-0.1097,-0.1164,-0.1161,-0.1184,-0.1195,-0.1195,-0.1076,-0.1069,-0.1154,-0.1187,-0.1187,-0.1187,-0.1186,-0.1186,0,-0.0587,-0.0604,-0.0622,-0.0627,-0.0649,-0.0679,-0.0695,-0.0742,-0.077,-0.0844,-0.0863,-0.0974,-0.1031,-0.1086,-0.1138,-0.1155,-0.117,-0.1198,-0.1126,-0.1119,-0.1189,-0.1185,-0.1227,-0.1227,-0.1227,-0.1227,-0.1227,0,-0.0591,-0.0594,-0.0614,-0.0617,-0.0632,-0.0656,-0.0688,-0.0719,-0.0775,-0.0782,-0.0871,-0.0908,-0.1027,-0.1063,-0.1118,-0.1111,-0.1162,-0.1112,-0.1107,-0.1213,-0.1212,-0.119,-0.1186,-0.1227,-0.1227,-0.1227,-0.1227,0,-0.0566,-0.0592,-0.0597,-0.0624,-0.0629,-0.0634,-0.0665,-0.0675,-0.0725,-0.0745,-0.077,-0.085,-0.0888,-0.0972,-0.104,-0.1054,-0.1074,-0.1061,-0.1142,-0.1144,-0.1019,-0.1018,-0.0979,-0.0975,-0.0972,-0.0969,-0.0967,0,-0.0553,-0.056,-0.0585,-0.0581,-0.0596,-0.0605,-0.0614,-0.0659,-0.0663,-0.0697,-0.0699,-0.0746,-0.0802,-0.0806,-0.0906,-0.097,-0.0983,-0.0979,-0.1026,-0.0993,-0.0993,-0.0997,-0.1,-0.0962,-0.0962,-0.0961,-0.096,0,-0.0516,-0.0544,-0.0541,-0.0544,-0.055,-0.0537,-0.0548,-0.0549,-0.0589,-0.0627,-0.0616,-0.0649,-0.0672,-0.0748,-0.0786,-0.0845,-0.0976,-0.0947,-0.0955,-0.0999,-0.0973,-0.0976,-0.0983,-0.0949,-0.0951,-0.0952,-0.0952,0,-0.0488,-0.0483,-0.05,-0.0489,-0.0484,-0.0463,-0.0484,-0.0478,-0.0491,-0.0536,-0.0528,-0.0582,-0.0643,-0.0679,-0.0722,-0.0756,-0.0778,-0.0785,-0.0803,-0.0815,-0.0776,-0.0719,-0.0598,0,0,0,0,0,-0.045,-0.0437,-0.0431,-0.0418,-0.0409,-0.0405,-0.0425,-0.0451,-0.0494,-0.0463,-0.0496,-0.052,-0.0562,-0.06,-0.0613,-0.068,-0.0795,-0.0694,-0.0814,-0.0889,-0.0902,-0.0874,0,0,0,0,0,0,-0.0425,-0.0419,-0.0415,-0.0352,-0.0323,-0.0307,-0.0321,-0.0355,-0.0352,-0.0402,-0.0435,-0.0472,-0.0536,-0.0538,-0.0591,-0.0608,-0.0673,-0.0738,-0.0736,-0.0882,-0.0893,-0.0903,-0.088,0,0,0,0,0]},{"header":{"parameterUnit":"m.s-1","parameterCategory":2,"la1":30.2991,"la2":30.254,"lo1":-89.0895,"lo2":-89.0444,"dy":0.0017,"dx":0.0017,"nx":28,"ny":28,"refTime":"2023-11-06T09:00:00:Z","depth":"4","parameterNumber":3,"parameterNumberName":"V-component_of_CURRENTS"},"data":[0,0,0,0,0,0,0,0,0,0,0,0,0,0,0,0,0,0,0,0,0,0,0,0,0,0,0,0,0,0,0,0,0,0,0,0,0,0,0,0,0,0,0,0,0,0,0,0,0,0,0,0,0,0,0,0,0,0,-0.0491,-0.0491,0,-0.0524,-0.0524,-0.0525,-0.0534,-0.0534,-0.0533,-0.0533,-0.0506,-0.0506,-0.0506,0,0,0,0,0,0,0,0,0,0,0,0,0,-0.0411,-0.0413,-0.0491,-0.0491,-0.0491,-0.0524,-0.0524,-0.0525,-0.0535,-0.0534,-0.0533,-0.0533,-0.0506,-0.0506,-0.0506,0,0,0,0,0,0,0,0,0,0,0,0,0,-0.0449,-0.0414,-0.0491,-0.0496,-0.0497,-0.0523,-0.0524,-0.0525,-0.0535,-0.0534,-0.0533,-0.0532,-0.0507,-0.0506,-0.0506,-0.052,0,0,-0.0505,-0.0505,0,0,0,0,0,0,0,0,-0.0447,-0.0452,-0.0496,-0.0496,-0.0497,-0.0521,-0.0486,-0.0519,-0.0535,-0.0525,-0.0533,-0.0532,-0.0504,-0.0504,-0.0518,-0.0519,-0.0518,-0.0505,-0.0505,-0.0505,-0.0505,0,0,0,0,0,0,0,-0.0444,-0.0451,-0.0508,-0.0496,-0.0496,-0.0489,-0.0494,-0.0493,-0.052,-0.0525,-0.0525,-0.0523,-0.0504,-0.0518,-0.0517,-0.0517,-0.0505,-0.0505,-0.0505,-0.0504,-0.0537,-0.0538,0,0,0,0,0,0,-0.0435,-0.0449,-0.0506,-0.0508,-0.0465,-0.0491,-0.0497,-0.0517,-0.0521,-0.0521,-0.0524,-0.0523,-0.0519,-0.0518,-0.0516,-0.053,-0.0505,-0.0504,-0.0504,-0.0536,-0.0537,-0.0538,0,0,0,0,0,0,-0.0434,-0.0441,-0.0505,-0.0474,-0.0481,-0.0493,-0.0516,-0.0518,-0.0539,-0.052,-0.0519,-0.0542,-0.0519,-0.0517,-0.0528,-0.0528,-0.0504,-0.0504,-0.0535,-0.0536,-0.0538,-0.0558,0,0,0,0,0,0,-0.0432,-0.0441,-0.0459,-0.0475,-0.0483,-0.0523,-0.0516,-0.0519,-0.0537,-0.0537,-0.0535,-0.0532,-0.0518,-0.0529,-0.0528,-0.0528,-0.0504,-0.0533,-0.0536,-0.0537,-0.0556,-0.056,-0.0564,0,0,0,0,0,-0.0429,-0.0457,-0.046,-0.0467,-0.0506,-0.0523,-0.0527,-0.0534,-0.0538,-0.0551,-0.0555,-0.0532,-0.054,-0.053,-0.0528,-0.0528,-0.0532,-0.0535,-0.0537,-0.0555,-0.056,-0.0564,0,0,0,0,0,0,-0.0439,-0.0461,-0.0464,-0.05,-0.0509,-0.0523,-0.0537,-0.0543,-0.0561,-0.0565,-0.055,-0.0547,-0.0555,-0.0548,-0.0537,-0.0546,-0.0531,-0.0533,-0.0545,-0.0549,-0.0553,-0.0547,-0.0503,0,0,0,0,0,-0.0447,-0.0473,-0.0484,-0.0513,-0.0519,-0.0532,-0.0543,-0.0549,-0.056,-0.0569,-0.0566,-0.0566,-0.0565,-0.0563,-0.0561,-0.0571,-0.0551,-0.057,-0.0574,-0.0577,-0.0573,-0.0549,-0.0549,-0.0546,-0.0546,-0.0546,0,0,-0.0458,-0.0473,-0.0488,-0.0516,-0.0527,-0.0538,-0.0538,-0.056,-0.0572,-0.0561,-0.0584,-0.058,-0.0572,-0.0579,-0.0581,-0.0572,-0.0571,-0.058,-0.0582,-0.0577,-0.0551,-0.0551,-0.0551,-0.0548,-0.0548,-0.0547,0,0,-0.0479,-0.0507,-0.0527,-0.0535,-0.0549,-0.0556,-0.0564,-0.0583,-0.0595,-0.0615,-0.0608,-0.0613,-0.0614,-0.0608,-0.0604,-0.0633,-0.0593,-0.0628,-0.0638,-0.0614,-0.0614,-0.0613,-0.0595,-0.0592,-0.0628,-0.0628,-0.0628,0,-0.0487,-0.0519,-0.0533,-0.0546,-0.0558,-0.0564,-0.0582,-0.0595,-0.0615,-0.0625,-0.0622,-0.0633,-0.0627,-0.063,-0.0636,-0.0638,-0.0616,-0.0617,-0.0617,-0.0616,-0.0614,-0.0596,-0.0592,-0.0629,-0.0629,-0.0629,-0.0629,0,-0.0508,-0.0538,-0.055,-0.0569,-0.0585,-0.0604,-0.0614,-0.0635,-0.0648,-0.065,-0.0665,-0.0664,-0.0667,-0.0665,-0.0655,-0.0647,-0.0632,-0.0623,-0.0599,-0.0615,-0.0596,-0.0592,-0.0631,-0.0631,-0.063,-0.063,0,0,-0.0516,-0.0557,-0.0562,-0.0577,-0.0602,-0.0614,-0.0642,-0.0662,-0.0677,-0.0686,-0.0701,-0.07,-0.0694,-0.069,-0.0682,-0.066,-0.0636,-0.0634,-0.0632,-0.0606,-0.0579,-0.0514,-0.0503,-0.0616,-0.0616,-0.0615,-0.0571,0,-0.0526,-0.0557,-0.0579,-0.0611,-0.0629,-0.0651,-0.0674,-0.0692,-0.0705,-0.0718,-0.0713,-0.072,-0.0704,-0.0708,-0.0684,-0.066,-0.0625,-0.0649,-0.0576,-0.0575,-0.0505,-0.0496,-0.0613,-0.0568,-0.0567,-0.0566,-0.0566,0,-0.0535,-0.0558,-0.0594,-0.0639,-0.0649,-0.0672,-0.0714,-0.0732,-0.0746,-0.0757,-0.0758,-0.0747,-0.074,-0.0715,-0.0667,-0.0679,-0.0623,-0.0592,-0.0589,-0.0515,-0.0501,-0.0548,-0.0558,-0.0559,-0.0559,-0.056,-0.056,0,-0.0529,-0.057,-0.0603,-0.0615,-0.066,-0.0694,-0.0719,-0.0747,-0.0762,-0.078,-0.0783,-0.0774,-0.077,-0.0716,-0.0657,-0.0658,-0.0583,-0.0582,-0.0466,-0.0462,-0.0525,-0.0526,-0.0512,-0.0512,-0.0512,-0.0512,-0.0512,0,-0.0534,-0.0562,-0.0606,-0.0625,-0.0668,-0.0698,-0.0741,-0.0768,-0.0789,-0.0793,-0.0797,-0.0791,-0.0762,-0.0718,-0.066,-0.0554,-0.0587,-0.0457,-0.0438,-0.0538,-0.0541,-0.0522,-0.0524,-0.051,-0.0511,-0.0511,-0.0511,0,-0.0533,-0.0559,-0.0597,-0.065,-0.0672,-0.0703,-0.0757,-0.0774,-0.0799,-0.0806,-0.0809,-0.0802,-0.0744,-0.0695,-0.0612,-0.0551,-0.0467,-0.0407,-0.0521,-0.0511,-0.0362,-0.0366,-0.0288,-0.0286,-0.0283,-0.0281,-0.0279,0,-0.0537,-0.0556,-0.0612,-0.0636,-0.0671,-0.0716,-0.0746,-0.0783,-0.0792,-0.08,-0.0793,-0.0751,-0.0728,-0.0582,-0.0529,-0.0413,-0.0375,-0.0342,-0.0341,-0.0346,-0.0336,-0.0343,-0.035,-0.0276,-0.0275,-0.0274,-0.0274,0,-0.054,-0.0562,-0.0592,-0.0638,-0.0679,-0.0713,-0.0756,-0.0757,-0.078,-0.0797,-0.0757,-0.0694,-0.0614,-0.0539,-0.0441,-0.0357,-0.0385,-0.0316,-0.0321,-0.0319,-0.0329,-0.0323,-0.0333,-0.0265,-0.0267,-0.0267,-0.0268,0,-0.0539,-0.0557,-0.059,-0.063,-0.0675,-0.07,-0.0727,-0.0729,-0.0736,-0.0737,-0.072,-0.066,-0.064,-0.0505,-0.0421,-0.0332,-0.03,-0.0276,-0.0282,-0.029,-0.0298,-0.0312,-0.0215,0,0,0,0,0,-0.0526,-0.0542,-0.0577,-0.0619,-0.0661,-0.0688,-0.0722,-0.0738,-0.0751,-0.0711,-0.0713,-0.0634,-0.0503,-0.0467,-0.0358,-0.0367,-0.0287,-0.0236,-0.0263,-0.0219,-0.0229,-0.0231,0,0,0,0,0,0,-0.0517,-0.0546,-0.0564,-0.0596,-0.0623,-0.0667,-0.0689,-0.0704,-0.0678,-0.0683,-0.0617,-0.0595,-0.0475,-0.0562,-0.0354,-0.0329,-0.0327,-0.0186,-0.0183,-0.0214,-0.0222,-0.023,-0.0236,0,0,0,0,0]}]]